When you browse on this site, cookies collect data to enhance your experience and personalize the content and advertising you see.
Visit our Privacy Policy to learn more. By continuing to use the site, you agree to this use of cookies and data.
  • In Belgium
  • List of Countries
  • For 7 days
  • Water Temperature
  • Satellite Maps
  • Weather Map
  • Weather Widgets
  • user-avatar
    Login

    Hourly Weather Frankfurt am Mein

    Today, 19 April, Friday

    Time Temperature Precipitation Wind Pressure Humidity
    00:00 +10°C° 0 mm 2 mps 729 mmHg 68%
    01:00 +9°C° 0 mm 2 mps 729 mmHg 71%
    02:00 +8°C° 0 mm 2 mps 729 mmHg 74%
    03:00 +8°C° 0 mm 2 mps 729 mmHg 77%
    04:00 +7°C° 0 mm 2 mps 729 mmHg 80%
    05:00 +8°C° 0 mm 2 mps 729 mmHg 78%
    06:00 +8°C° 0 mm 2 mps 729 mmHg 76%
    07:00 +8°C° 0 mm 2 mps 730 mmHg 74%
    08:00 +10°C° 0 mm 3 mps 730 mmHg 67%
    09:00 +12°C° 0 mm 3 mps 730 mmHg 60%
    10:00 +14°C° 0 mm 3 mps 731 mmHg 54%
    11:00 +17°C° 0 mm 4 mps 731 mmHg 49%
    12:00 +18°C° 0 mm 4 mps 731 mmHg 44%
    13:00 +20°C° 0 mm 4 mps 731 mmHg 40%
    14:00 +20°C° 0 mm 4 mps 731 mmHg 39%
    15:00 +20°C° 0 mm 4 mps 730 mmHg 38%
    16:00 +20°C° 0 mm 4 mps 730 mmHg 36%
    17:00 +19°C° 0 mm 3 mps 730 mmHg 42%
    18:00 +17°C° 0 mm 2 mps 730 mmHg 47%
    19:00 +16°C° 0 mm 2 mps 730 mmHg 53%
    20:00 +14°C° 0 mm 2 mps 730 mmHg 58%
    21:00 +13°C° 0 mm 2 mps 730 mmHg 64%
    22:00 +12°C° 0 mm 2 mps 731 mmHg 70%
    23:00 +10°C° 0 mm 2 mps 731 mmHg 72%

    Tomorrow, 20 April, Saturday

    Time Temperature Precipitation Wind Pressure Humidity
    00:00 +10°C° 0 mm 2 mps 731 mmHg 74%
    01:00 +9°C° 0 mm 2 mps 731 mmHg 76%
    02:00 +9°C° 0 mm 2 mps 730 mmHg 77%
    03:00 +8°C° 0 mm 2 mps 730 mmHg 78%
    04:00 +8°C° 0 mm 2 mps 730 mmHg 79%
    05:00 +8°C° 0 mm 2 mps 730 mmHg 77%
    06:00 +9°C° 0 mm 2 mps 730 mmHg 76%
    07:00 +9°C° 0 mm 2 mps 731 mmHg 74%
    08:00 +12°C° 0 mm 2 mps 731 mmHg 67%
    09:00 +14°C° 0 mm 2 mps 731 mmHg 59%
    10:00 +17°C° 0 mm 3 mps 731 mmHg 51%
    11:00 +18°C° 0 mm 3 mps 731 mmHg 47%
    12:00 +19°C° 0 mm 3 mps 731 mmHg 42%
    13:00 +20°C° 0 mm 3 mps 731 mmHg 37%
    14:00 +21°C° 0 mm 3 mps 730 mmHg 37%
    15:00 +21°C° 0 mm 3 mps 730 mmHg 37%
    16:00 +21°C° 0 mm 3 mps 730 mmHg 37%
    17:00 +19°C° 0 mm 3 mps 729 mmHg 45%
    18:00 +18°C° 0 mm 3 mps 729 mmHg 53%
    19:00 +16°C° 0 mm 2 mps 729 mmHg 60%
    20:00 +14°C° 0 mm 3 mps 729 mmHg 64%
    21:00 +13°C° 0 mm 3 mps 729 mmHg 68%
    22:00 +12°C° 0 mm 3 mps 729 mmHg 72%
    23:00 +12°C° 0 mm 2 mps 729 mmHg 73%

    Day after tomorrow, 21 April, Sunday

    Time Temperature Precipitation Wind Pressure Humidity
    00:00 +10°C° 0 mm 2 mps 729 mmHg 75%
    01:00 +9°C° 0 mm 2 mps 728 mmHg 77%
    02:00 +9°C° 0 mm 2 mps 728 mmHg 78%
    03:00 +8°C° 0 mm 2 mps 728 mmHg 80%
    04:00 +8°C° 0 mm 2 mps 727 mmHg 82%
    05:00 +8°C° 0 mm 2 mps 727 mmHg 80%
    06:00 +9°C° 0 mm 2 mps 727 mmHg 77%
    07:00 +9°C° 0 mm 2 mps 727 mmHg 75%
    08:00 +12°C° 0 mm 2 mps 727 mmHg 68%
    09:00 +14°C° 0 mm 2 mps 727 mmHg 60%
    10:00 +16°C° 0 mm 2 mps 727 mmHg 52%
    11:00 +18°C° 0 mm 2 mps 726 mmHg 48%
    12:00 +19°C° 0 mm 2 mps 726 mmHg 44%
    13:00 +20°C° 0 mm 2 mps 726 mmHg 40%
    14:00 +20°C° 0 mm 2 mps 725 mmHg 39%
    15:00 +20°C° 0 mm 3 mps 724 mmHg 39%
    16:00 +20°C° 0 mm 3 mps 724 mmHg 39%
    17:00 +19°C° 0 mm 2 mps 723 mmHg 46%
    18:00 +17°C° 0 mm 2 mps 723 mmHg 52%
    19:00 +16°C° 0 mm 2 mps 722 mmHg 59%
    20:00 +14°C° 0 mm 2 mps 722 mmHg 63%
    21:00 +13°C° 0 mm 2 mps 722 mmHg 67%
    22:00 +12°C° 0 mm 2 mps 722 mmHg 71%
    23:00 +10°C° 0 mm 2 mps 722 mmHg 74%

    22 April, Monday

    Time Temperature Precipitation Wind Pressure Humidity
    00:00 +9°C° 0 mm 2 mps 721 mmHg 77%
    01:00 +9°C° 0 mm 2 mps 721 mmHg 80%
    02:00 +9°C° 0 mm 1 mps 721 mmHg 80%
    03:00 +9°C° 0 mm 1 mps 720 mmHg 81%
    04:00 +8°C° 0 mm 1 mps 720 mmHg 81%
    05:00 +9°C° 0 mm 1 mps 719 mmHg 77%
    06:00 +8°C° 0 mm 2 mps 719 mmHg 74%
    07:00 +9°C° 0 mm 2 mps 719 mmHg 70%
    08:00 +12°C° 0 mm 2 mps 719 mmHg 63%
    09:00 +13°C° 0 mm 3 mps 719 mmHg 56%
    10:00 +16°C° 0 mm 3 mps 718 mmHg 49%
    11:00 +17°C° 0 mm 4 mps 718 mmHg 46%
    12:00 +18°C° 0 mm 4 mps 717 mmHg 42%
    13:00 +19°C° 0 mm 4 mps 717 mmHg 38%
    14:00 +20°C° 0 mm 4 mps 716 mmHg 39%
    15:00 +20°C° 0 mm 5 mps 716 mmHg 40%
    16:00 +20°C° 0 mm 5 mps 715 mmHg 41%
    17:00 +17°C° 0 mm 5 mps 715 mmHg 47%
    18:00 +16°C° 0 mm 5 mps 714 mmHg 53%
    19:00 +14°C° 0 mm 5 mps 714 mmHg 59%
    20:00 +13°C° 0 mm 5 mps 714 mmHg 61%
    21:00 +12°C° 0 mm 5 mps 714 mmHg 62%
    22:00 +9°C° 0 mm 5 mps 713 mmHg 64%
    23:00 +8°C° 0 mm 4 mps 713 mmHg 66%

    23 April, Tuesday

    Time Temperature Precipitation Wind Pressure Humidity
    00:00 +7°C° 0 mm 4 mps 712 mmHg 68%
    01:00 +8°C° 0 mm 3 mps 712 mmHg 69%
    02:00 +7°C° 0 mm 3 mps 712 mmHg 74%
    03:00 +5°C° 0 mm 3 mps 711 mmHg 79%
    04:00 +6°C° 0 mm 2 mps 711 mmHg 83%
    05:00 +6°C° 0 mm 2 mps 711 mmHg 84%
    06:00 +6°C° 0 mm 2 mps 711 mmHg 84%
    07:00 +6°C° 0 mm 2 mps 710 mmHg 84%
    08:00 +9°C° 0 mm 2 mps 711 mmHg 77%
    09:00 +12°C° 0 mm 2 mps 711 mmHg 69%
    10:00 +14°C° 0 mm 2 mps 711 mmHg 62%
    11:00 +16°C° 0 mm 2 mps 711 mmHg 56%
    12:00 +19°C° 0 mm 1 mps 711 mmHg 50%
    13:00 +21°C° 0 mm 1 mps 711 mmHg 44%
    14:00 +21°C° 0 mm 1 mps 711 mmHg 43%
    15:00 +22°C° 0 mm 1 mps 711 mmHg 43%
    16:00 +22°C° 0 mm 1 mps 711 mmHg 42%
    17:00 +20°C° 0 mm 1 mps 711 mmHg 48%
    18:00 +17°C° 0 mm 0 mps 711 mmHg 53%
    19:00 +16°C° 0 mm 0 mps 711 mmHg 58%
    20:00 +14°C° 0 mm 0 mps 711 mmHg 62%
    21:00 +13°C° 0 mm 0 mps 711 mmHg 65%
    22:00 +12°C° 0 mm 0 mps 712 mmHg 68%
    23:00 +12°C° 0 mm 0 mps 712 mmHg 70%

    24 April, Wednesday

    Time Temperature Precipitation Wind Pressure Humidity
    00:00 +11°C° 0 mm 0 mps 712 mmHg 73%
    01:00 +11°C° 0 mm 0 mps 713 mmHg 76%
    02:00 +11°C° 0 mm 0 mps 713 mmHg 78%
    03:00 +10°C° 0 mm 0 mps 713 mmHg 80%
    04:00 +10°C° 0 mm 0 mps 714 mmHg 81%
    05:00 +12°C° 0 mm 1 mps 714 mmHg 80%
    06:00 +13°C° 0 mm 1 mps 715 mmHg 80%
    07:00 +13°C° 0 mm 1 mps 715 mmHg 79%
    08:00 +15°C° 0 mm 2 mps 716 mmHg 71%
    09:00 +17°C° 0 mm 2 mps 716 mmHg 63%
    10:00 +19°C° 0 mm 3 mps 717 mmHg 55%
    11:00 +20°C° 0 mm 3 mps 717 mmHg 52%
    12:00 +21°C° 0 mm 3 mps 717 mmHg 49%
    13:00 +22°C° 0 mm 3 mps 717 mmHg 46%
    14:00 +22°C° 0.1 mm 3 mps 717 mmHg 46%
    15:00 +23°C° 0.1 mm 2 mps 717 mmHg 47%
    16:00 +23°C° 0.1 mm 2 mps 717 mmHg 47%
    17:00 +21°C° 0 mm 2 mps 717 mmHg 52%
    18:00 +20°C° 0 mm 1 mps 717 mmHg 56%
    19:00 +19°C° 0 mm 1 mps 716 mmHg 61%
    20:00 +19°C° 0 mm 1 mps 717 mmHg 61%
    21:00 +18°C° 0 mm 1 mps 717 mmHg 62%
    22:00 +16°C° 0 mm 1 mps 717 mmHg 62%
    23:00 +15°C° 0.5 mm 1 mps 717 mmHg 68%
    Show more